Time,TemperatureF,DewpointF,PressureIn,WindDirection,WindDirectionDegrees,WindSpeedMPH,WindSpeedGustMPH,Humidity,HourlyPrecipIn,Conditions,Clouds,dailyrainin,SoftwareType,DateUTC
2013-08-26 00:13:00,76.0,70.0,30.10,SW,216,2.0,6.0,81,0.00,,,0.00,,2013-08-26 05:13:00,
2013-08-26 00:23:00,75.0,69.0,30.09,SW,221,2.0,7.0,81,0.00,,,0.00,,2013-08-26 05:23:00,
2013-08-26 00:43:00,75.0,69.0,30.09,SSW,209,2.0,6.0,82,0.00,,,0.00,,2013-08-26 05:43:00,
2013-08-26 00:52:00,75.0,69.0,30.08,SW,225,3.0,7.0,81,0.00,,,0.00,,2013-08-26 05:52:00,
2013-08-26 01:12:00,75.0,69.0,30.08,SSW,205,2.0,7.0,81,0.00,,,0.00,,2013-08-26 06:12:00,
2013-08-26 01:21:00,74.0,68.0,30.07,SSW,196,3.0,6.0,81,0.00,,,0.00,,2013-08-26 06:21:00,
2013-08-26 01:42:00,74.0,68.0,30.07,SSW,198,4.0,10.0,81,0.00,,,0.00,,2013-08-26 06:42:00,
2013-08-26 01:52:00,74.0,67.0,30.07,SSW,192,4.0,12.0,80,0.00,,,0.00,,2013-08-26 06:52:00,
2013-08-26 02:11:00,74.0,67.0,30.07,SSW,206,1.0,8.0,79,0.00,,,0.00,,2013-08-26 07:11:00,
2013-08-26 02:22:00,74.0,67.0,30.07,SW,219,3.0,8.0,80,0.00,,,0.00,,2013-08-26 07:22:00,
2013-08-26 02:42:00,73.0,66.0,30.08,SW,226,2.0,7.0,80,0.00,,,0.00,,2013-08-26 07:42:00,
2013-08-26 02:52:00,73.0,67.0,30.08,SSW,193,2.0,6.0,81,0.00,,,0.00,,2013-08-26 07:52:00,
2013-08-26 03:12:00,73.0,67.0,30.08,South,191,1.0,5.0,81,0.00,,,0.00,,2013-08-26 08:12:00,
2013-08-26 03:22:00,72.0,66.0,30.08,SSW,207,2.0,5.0,82,0.00,,,0.00,,2013-08-26 08:22:00,
2013-08-26 03:42:00,72.0,66.0,30.07,SSW,209,2.0,6.0,82,0.00,,,0.00,,2013-08-26 08:42:00,
2013-08-26 03:52:00,72.0,66.0,30.06,SW,221,2.0,7.0,82,0.00,,,0.00,,2013-08-26 08:52:00,
2013-08-26 04:11:00,72.0,66.0,30.06,South,180,2.0,6.0,82,0.00,,,0.00,,2013-08-26 09:11:00,
2013-08-26 04:21:00,72.0,66.0,30.06,South,183,2.0,6.0,81,0.00,,,0.00,,2013-08-26 09:21:00,
2013-08-26 04:53:00,71.0,65.0,30.06,SSW,211,1.0,3.0,81,0.00,,,0.00,,2013-08-26 09:53:00,
2013-08-26 05:12:00,72.0,65.0,30.07,SW,217,2.0,6.0,79,0.00,,,0.00,,2013-08-26 10:12:00,
2013-08-26 05:23:00,72.0,65.0,30.07,South,183,3.0,8.0,78,0.00,,,0.00,,2013-08-26 10:23:00,
2013-08-26 05:42:00,73.0,65.0,30.06,South,182,3.0,12.0,77,0.00,,,0.00,,2013-08-26 10:42:00,
2013-08-26 05:52:00,72.0,65.0,30.07,SSE,159,2.0,7.0,78,0.00,,,0.00,,2013-08-26 10:52:00,
2013-08-26 06:12:00,72.0,65.0,30.06,SSW,208,1.0,5.0,79,0.00,,,0.00,,2013-08-26 11:12:00,
2013-08-26 06:22:00,72.0,65.0,30.06,SSW,204,2.0,6.0,79,0.00,,,0.00,,2013-08-26 11:22:00,
2013-08-26 06:52:00,71.0,65.0,30.07,SSE,148,0.0,3.0,81,0.00,,,0.00,,2013-08-26 11:52:00,
2013-08-26 07:12:00,71.0,65.0,30.08,South,191,0.0,1.0,81,0.00,,,0.00,,2013-08-26 12:12:00,
2013-08-26 07:21:00,71.0,65.0,30.08,South,169,0.0,2.0,82,0.00,,,0.00,,2013-08-26 12:21:00,
2013-08-26 07:52:00,71.0,65.0,30.08,SSW,196,0.0,3.0,82,0.00,,,0.00,,2013-08-26 12:52:00,
2013-08-26 08:11:00,71.0,65.0,30.08,South,188,0.0,3.0,82,0.00,,,0.00,,2013-08-26 13:11:00,
2013-08-26 08:21:00,72.0,66.0,30.08,SW,214,1.0,5.0,82,0.00,,,0.00,,2013-08-26 13:21:00,
2013-08-26 08:42:00,72.0,66.0,30.08,South,189,2.0,5.0,82,0.00,,,0.00,,2013-08-26 13:42:00,
2013-08-26 08:52:00,73.0,67.0,30.08,SSW,196,1.0,6.0,81,0.00,,,0.00,,2013-08-26 13:52:00,
2013-08-26 09:11:00,74.0,67.0,30.08,South,175,1.0,5.0,80,0.00,,,0.00,,2013-08-26 14:11:00,
2013-08-26 09:22:00,76.0,69.0,30.08,SSE,161,2.0,5.0,78,0.00,,,0.00,,2013-08-26 14:22:00,
2013-08-26 09:42:00,78.0,71.0,30.08,South,183,0.0,2.0,78,0.00,,,0.00,,2013-08-26 14:42:00,
2013-08-26 09:52:00,78.0,70.0,30.08,SSW,192,0.0,3.0,76,0.00,,,0.00,,2013-08-26 14:52:00,
2013-08-26 10:12:00,78.0,71.0,30.08,SSE,166,0.0,2.0,78,0.00,,,0.00,,2013-08-26 15:12:00,
2013-08-26 10:22:00,79.0,71.0,30.08,SSE,165,0.0,1.0,77,0.00,,,0.00,,2013-08-26 15:22:00,
2013-08-26 10:47:00,81.0,72.0,30.08,ENE,78,0.0,1.0,75,0.00,,,0.00,,2013-08-26 15:47:00,
2013-08-26 10:59:00,81.0,72.0,30.08,WSW,258,0.0,2.0,74,0.00,,,0.00,,2013-08-26 15:59:00,
2013-08-26 11:17:00,83.0,74.0,30.07,SSW,211,0.0,3.0,74,0.00,,,0.00,,2013-08-26 16:17:00,
2013-08-26 11:29:00,84.0,74.0,30.06,WSW,238,1.0,6.0,71,0.00,,,0.00,,2013-08-26 16:29:00,
2013-08-26 11:48:00,86.0,75.0,30.06,NNW,345,1.0,3.0,69,0.00,,,0.00,,2013-08-26 16:48:00,
2013-08-26 11:59:00,86.0,74.0,30.06,SW,225,0.0,5.0,68,0.00,,,0.00,,2013-08-26 16:59:00,
2013-08-26 12:12:00,87.0,74.0,30.06,SSW,193,0.0,1.0,66,0.00,,,0.00,,2013-08-26 17:12:00,
2013-08-26 12:24:00,88.0,75.0,30.06,South,181,0.0,2.0,65,0.00,,,0.00,,2013-08-26 17:24:00,
2013-08-26 12:43:00,87.0,74.0,30.05,SW,215,1.0,5.0,66,0.00,,,0.00,,2013-08-26 17:43:00,
2013-08-26 12:53:00,87.0,75.0,30.04,SSW,206,0.0,3.0,68,0.00,,,0.00,,2013-08-26 17:53:00,
2013-08-26 13:12:00,88.0,76.0,30.04,SW,229,0.0,2.0,68,0.00,,,0.00,,2013-08-26 18:12:00,
2013-08-26 13:22:00,89.0,75.0,30.03,NNE,15,0.0,3.0,64,0.00,,,0.00,,2013-08-26 18:22:00,
2013-08-26 13:52:00,90.0,75.0,30.02,South,185,1.0,7.0,62,0.00,,,0.00,,2013-08-26 18:52:00,
2013-08-26 14:11:00,90.0,76.0,30.01,SSW,211,0.0,3.0,64,0.00,,,0.00,,2013-08-26 19:11:00,
2013-08-26 14:22:00,91.0,77.0,30.01,SSW,198,0.0,6.0,63,0.00,,,0.00,,2013-08-26 19:22:00,
2013-08-26 14:42:00,90.0,76.0,29.99,South,190,3.0,8.0,63,0.00,,,0.00,,2013-08-26 19:42:00,
2013-08-26 14:52:00,90.0,76.0,29.99,SSW,213,3.0,7.0,64,0.00,,,0.00,,2013-08-26 19:52:00,
2013-08-26 15:11:00,90.0,76.0,29.98,South,172,1.0,9.0,63,0.00,,,0.00,,2013-08-26 20:11:00,
2013-08-26 15:22:00,90.0,75.0,29.97,South,190,1.0,7.0,62,0.00,,,0.00,,2013-08-26 20:22:00,
2013-08-26 15:43:00,90.0,76.0,29.96,SSW,197,5.0,9.0,64,0.00,,,0.00,,2013-08-26 20:43:00,
2013-08-26 15:52:00,89.0,75.0,29.96,SSE,168,7.0,12.0,64,0.00,,,0.00,,2013-08-26 20:52:00,
2013-08-26 16:11:00,89.0,74.0,29.96,SSW,202,6.0,12.0,62,0.00,,,0.00,,2013-08-26 21:11:00,
2013-08-26 16:22:00,89.0,75.0,29.96,SW,230,2.0,10.0,64,0.00,,,0.00,,2013-08-26 21:22:00,
2013-08-26 16:55:00,89.0,75.0,29.95,SSW,195,5.0,12.0,63,0.00,,,0.00,,2013-08-26 21:55:00,
2013-08-26 17:16:00,89.0,75.0,29.95,WSW,250,1.0,13.0,63,0.00,,,0.00,,2013-08-26 22:16:00,
2013-08-26 17:26:00,89.0,74.0,29.95,South,175,5.0,12.0,61,0.00,,,0.00,,2013-08-26 22:26:00,
2013-08-26 17:42:00,89.0,74.0,29.95,South,177,2.0,9.0,61,0.00,,,0.00,,2013-08-26 22:42:00,
2013-08-26 17:53:00,89.0,73.0,29.95,South,174,2.0,8.0,60,0.00,,,0.00,,2013-08-26 22:53:00,
2013-08-26 18:12:00,88.0,73.0,29.95,SSW,210,2.0,7.0,62,0.00,,,0.00,,2013-08-26 23:12:00,
2013-08-26 18:22:00,88.0,73.0,29.95,SSW,194,3.0,7.0,61,0.00,,,0.00,,2013-08-26 23:22:00,
2013-08-26 18:52:00,87.0,72.0,29.94,SSW,202,1.0,8.0,61,0.00,,,0.00,,2013-08-26 23:52:00,
2013-08-26 19:11:00,87.0,72.0,29.94,South,185,1.0,6.0,62,0.00,,,0.00,,2013-08-27 00:11:00,
2013-08-26 19:21:00,86.0,71.0,29.94,South,183,2.0,6.0,62,0.00,,,0.00,,2013-08-27 00:21:00,
2013-08-26 19:42:00,85.0,72.0,29.94,SW,215,1.0,6.0,65,0.00,,,0.00,,2013-08-27 00:42:00,
2013-08-26 19:52:00,85.0,72.0,29.94,SSW,207,2.0,3.0,66,0.00,,,0.00,,2013-08-27 00:52:00,
2013-08-26 20:12:00,84.0,72.0,29.93,SSW,192,1.0,3.0,67,0.00,,,0.00,,2013-08-27 01:12:00,
2013-08-26 20:22:00,84.0,72.0,29.93,SSW,206,2.0,5.0,67,0.00,,,0.00,,2013-08-27 01:22:00,
2013-08-26 20:42:00,83.0,71.0,29.93,SSW,196,0.0,3.0,68,0.00,,,0.00,,2013-08-27 01:42:00,
2013-08-26 20:52:00,83.0,72.0,29.94,SW,217,0.0,3.0,69,0.00,,,0.00,,2013-08-27 01:52:00,
2013-08-26 21:12:00,83.0,72.0,29.95,SSW,192,0.0,2.0,70,0.00,,,0.00,,2013-08-27 02:12:00,
2013-08-26 21:21:00,82.0,71.0,29.95,SSW,192,0.0,2.0,70,0.00,,,0.00,,2013-08-27 02:21:00,
2013-08-26 21:42:00,81.0,72.0,29.95,SSW,211,0.0,2.0,73,0.00,,,0.00,,2013-08-27 02:42:00,
2013-08-26 21:52:00,81.0,72.0,29.95,SSW,213,0.0,2.0,74,0.00,,,0.00,,2013-08-27 02:52:00,
2013-08-26 22:12:00,81.0,72.0,29.94,SSW,202,1.0,3.0,74,0.00,,,0.00,,2013-08-27 03:12:00,
2013-08-26 22:22:00,81.0,72.0,29.95,South,182,0.0,5.0,74,0.00,,,0.00,,2013-08-27 03:22:00,
2013-08-26 22:44:00,80.0,72.0,29.95,South,180,0.0,1.0,76,0.00,,,0.00,,2013-08-27 03:44:00,
2013-08-26 22:58:00,79.0,71.0,29.95,South,186,0.0,2.0,77,0.00,,,0.00,,2013-08-27 03:58:00,
2013-08-26 23:18:00,78.0,71.0,29.94,SSW,198,0.0,3.0,79,0.00,,,0.00,,2013-08-27 04:18:00,
2013-08-26 23:47:00,78.0,72.0,29.94,South,173,0.0,3.0,81,0.00,,,0.00,,2013-08-27 04:47:00,
2013-08-26 23:54:00,78.0,72.0,29.94,SW,215,0.0,3.0,81,0.00,,,0.00,,2013-08-27 04:54:00,